PROFILE

 METAR AND TAF INFORMATION
ADDS - METARS form results

(1339 UTC 26 September 2021)
http://aviationweather.gov/metar/data/
 
FOOL 261330Z 25008KT 220V280 9999 FEW014 29/24 Q1011 NOSIG
FOOL 261300Z 25008KT 220V280 9999 FEW014 29/24 Q1011 NOSIG
TAF FOOL 261100Z 2612/2718 18007KT 9999 SCT012 BKN030 PROB40 TEMPO 2702/2709 4000 RADZ BKN008 

 AIRPORT MAP

 RUNWAY INFORMATION
Runway 16 Runway length 9844 ft Runway width 148 ft
Runway elevation 29 ft Runway displaced threshold 0 ft Runway heading 154
Runway 34 Runway length 9844 ft Runway width 148 ft
Runway elevation 28 ft Runway displaced threshold 0 ft Runway heading 334

 AIRPORT FREQUENCIES
Type A/G Name A/G VOICE Frequency 655.9 MHZ
Type RDO Name LIBREVILLE Frequency 666.6 MHZ
Type TWR Name TWR Frequency 118.7 MHZ

 AIRPORT NEAR NAVIGATION AIDS
Type VOR-DME Name Libreville Frequency 112100 KHZ